Location: Czekanka
(50.4925°N, 19.2643°E)
Time: 08:13:04
(UTC+00:00)

Cosmos 2263 Rocket - Pass Details

Date: 26 September 2024
Orbit: 821 x 849 km, 71.0° (Epoch: 12 October)

Event Time Altitude Azimuth Distance (km) Brightness Sun altitude
Exits shadow 02:26:07 13° 182° (S) 2,240 4.1 -20.9°
Maximum altitude 02:30:55 49° 111° (ESE) 1,081 3.0 -20.2°
Drops below altitude 10° 02:36:22 10° 38° (NE) 2,477 5.5 -19.4°
Sets 02:38:54 0° 33° (NNE) 3,419 6.3 -19.0°
